TimeNZST,TemperatureF,Dew PointF,Humidity,Sea Level PressureIn,VisibilityMPH,Wind Direction,Wind SpeedMPH,Gust SpeedMPH,PrecipitationIn,Events,Conditions,WindDirDegrees,DateUTC
12:00 AM,44.6,44.6,100,29.95,6.2,NNE,3.5,-,N/A,Fog,Shallow Fog,20,2013-04-14 12:00:00
1:00 AM,48.2,48.2,100,29.95,6.2,NNE,1.2,-,N/A,Fog,Shallow Fog,20,2013-04-14 13:00:00
2:00 AM,48.2,48.2,100,29.95,6.2,North,3.5,-,N/A,Fog,Shallow Fog,10,2013-04-14 14:00:00
3:00 AM,46.4,44.6,93,29.95,6.2,North,2.3,-,N/A,Fog,Shallow Fog,350,2013-04-14 15:00:00
4:00 AM,42.8,42.8,100,29.92,6.2,WNW,3.5,-,N/A,Fog,Shallow Fog,290,2013-04-14 16:00:00
5:00 AM,44.6,42.8,93,29.92,-9999.0,WNW,3.5,-,N/A,,Clear,300,2013-04-14 17:00:00
6:00 AM,44.6,42.8,93,29.92,-9999.0,NW,3.5,-,N/A,,Clear,310,2013-04-14 18:00:00
7:00 AM,42.8,42.8,100,29.92,-9999.0,SSE,1.2,-,N/A,,Clear,150,2013-04-14 19:00:00
8:00 AM,44.6,44.6,100,29.92,-9999.0,NW,1.2,-,N/A,,Clear,320,2013-04-14 20:00:00
9:00 AM,50.0,48.2,94,29.92,-9999.0,WNW,3.5,-,N/A,,Clear,290,2013-04-14 21:00:00
10:00 AM,55.4,55.4,100,29.92,-9999.0,North,2.3,-,N/A,,Clear,10,2013-04-14 22:00:00
11:00 AM,60.8,51.8,72,29.92,-9999.0,ENE,2.3,-,N/A,,Clear,60,2013-04-14 23:00:00
12:00 PM,68.0,50.0,52,29.92,-9999.0,East,2.3,-,N/A,,Clear,100,2013-04-15 00:00:00
1:00 PM,71.6,46.4,41,29.89,-9999.0,ENE,3.5,-,N/A,,Clear,70,2013-04-15 01:00:00
2:00 PM,73.4,48.2,41,29.86,-9999.0,East,6.9,-,N/A,,Clear,80,2013-04-15 02:00:00
3:00 PM,71.6,48.2,43,29.86,-9999.0,East,10.4,-,N/A,,Clear,80,2013-04-15 03:00:00
4:00 PM,68.0,50.0,52,29.86,-9999.0,ENE,11.5,-,N/A,,Clear,70,2013-04-15 04:00:00
5:00 PM,68.0,50.0,52,29.86,-9999.0,ENE,9.2,-,N/A,,Clear,70,2013-04-15 05:00:00
6:00 PM,62.6,48.2,59,29.86,-9999.0,East,8.1,-,N/A,,Clear,90,2013-04-15 06:00:00
7:00 PM,60.8,48.2,63,29.86,-9999.0,East,8.1,-,N/A,,Clear,100,2013-04-15 07:00:00
8:00 PM,60.8,46.4,59,29.86,-9999.0,East,8.1,-,N/A,,Clear,90,2013-04-15 08:00:00
9:00 PM,57.2,48.2,72,29.86,-9999.0,NE,4.6,-,N/A,,Clear,40,2013-04-15 09:00:00
10:00 PM,53.6,44.6,72,29.86,-9999.0,North,3.5,-,N/A,,Clear,10,2013-04-15 10:00:00
11:00 PM,51.8,44.6,76,29.86,-9999.0,WNW,3.5,-,N/A,,Clear,290,2013-04-15 11:00:00